TimeCDT,TemperatureF,Dew PointF,Humidity,Sea Level PressureIn,VisibilityMPH,Wind Direction,Wind SpeedMPH,Gust SpeedMPH,PrecipitationIn,Events,Conditions,WindDirDegrees,DateUTC
12:54 AM,53.1,48.0,83,29.97,7.0,South,6.9,-,N/A,,Overcast,170,2012-10-13 05:54:00
1:54 AM,53.1,48.9,86,29.93,7.0,SSE,5.8,-,N/A,,Overcast,160,2012-10-13 06:54:00
2:01 AM,53.6,48.2,82,29.93,7.0,SSE,6.9,-,N/A,,Overcast,150,2012-10-13 07:01:00
2:39 AM,53.6,50.0,88,29.91,5.0,South,4.6,-,0.00,Rain-Thunderstorm,Light Rain,170,2012-10-13 07:39:00
2:48 AM,53.6,51.8,94,29.89,2.0,SSE,8.1,-,0.11,Rain,Heavy Rain,150,2012-10-13 07:48:00
2:54 AM,53.1,51.1,93,29.89,4.0,SSE,8.1,-,0.11,Rain,Light Rain,150,2012-10-13 07:54:00
3:30 AM,53.6,51.8,94,29.87,4.0,ESE,3.5,-,0.00,Thunderstorm,Overcast,120,2012-10-13 08:30:00
3:39 AM,53.6,53.6,100,29.86,4.0,Calm,Calm,-,0.00,Thunderstorm,Overcast,0,2012-10-13 08:39:00
3:42 AM,53.6,53.6,100,29.86,1.8,Calm,Calm,-,0.00,Rain-Thunderstorm,Light Thunderstorms and Rain,0,2012-10-13 08:42:00
3:51 AM,53.6,51.8,94,29.93,0.5,West,10.4,-,0.27,Fog-Rain-Thunderstorm,Heavy Thunderstorms and Rain,270,2012-10-13 08:51:00
3:54 AM,53.1,52.0,96,29.92,0.5,West,9.2,-,0.36,Fog-Rain-Thunderstorm,Heavy Thunderstorms and Rain,260,2012-10-13 08:54:00
4:02 AM,55.4,55.4,100,29.92,1.0,West,6.9,-,N/A,Rain-Thunderstorm,Heavy Thunderstorms and Rain,270,2012-10-13 09:02:00
4:11 AM,55.4,55.4,100,29.92,3.0,West,6.9,-,0.27,Rain-Thunderstorm,Thunderstorms and Rain,260,2012-10-13 09:11:00
4:29 AM,55.4,55.4,100,29.87,3.0,Variable,3.5,-,0.31,Rain,Rain,0,2012-10-13 09:29:00
4:39 AM,53.6,53.6,100,29.86,3.0,ENE,5.8,-,0.35,Rain,Rain,70,2012-10-13 09:39:00
4:54 AM,55.9,55.9,100,29.87,3.0,South,8.1,-,0.41,Rain,Rain,180,2012-10-13 09:54:00
5:54 AM,55.9,55.9,100,29.81,8.0,SSE,6.9,-,0.07,,Overcast,150,2012-10-13 10:54:00
6:16 AM,57.2,55.4,94,29.79,8.0,ESE,4.6,-,N/A,,Partly Cloudy,120,2012-10-13 11:16:00
6:54 AM,55.9,55.9,100,29.83,6.0,Calm,Calm,-,N/A,,Mostly Cloudy,0,2012-10-13 11:54:00
7:43 AM,55.4,55.4,100,29.82,4.0,SSE,5.8,-,N/A,,Mostly Cloudy,160,2012-10-13 12:43:00
7:49 AM,55.4,53.6,94,29.81,2.5,SSE,5.8,-,N/A,,Scattered Clouds,150,2012-10-13 12:49:00
7:54 AM,55.0,54.0,96,29.81,4.0,SE,4.6,-,N/A,,Partly Cloudy,140,2012-10-13 12:54:00
8:54 AM,57.9,57.9,100,29.79,4.0,South,6.9,-,N/A,,Clear,180,2012-10-13 13:54:00
9:54 AM,62.1,59.0,90,29.75,10.0,SSW,8.1,-,N/A,,Clear,210,2012-10-13 14:54:00
10:54 AM,64.9,59.0,81,29.76,10.0,SSW,11.5,-,N/A,,Clear,200,2012-10-13 15:54:00
11:25 AM,66.2,59.0,78,29.76,10.0,South,16.1,21.9,N/A,,Overcast,190,2012-10-13 16:25:00
11:42 AM,66.2,60.8,83,29.76,10.0,South,15.0,-,N/A,,Overcast,190,2012-10-13 16:42:00
11:54 AM,68.0,60.1,76,29.74,10.0,South,17.3,21.9,N/A,,Overcast,180,2012-10-13 16:54:00
12:05 PM,68.0,60.8,78,29.75,10.0,South,13.8,-,N/A,,Overcast,190,2012-10-13 17:05:00
12:36 PM,69.8,60.8,73,29.74,10.0,South,16.1,-,N/A,,Mostly Cloudy,190,2012-10-13 17:36:00
12:54 PM,69.8,60.8,73,29.73,10.0,SSW,13.8,23.0,N/A,,Overcast,210,2012-10-13 17:54:00
1:54 PM,72.0,61.0,68,29.69,10.0,South,13.8,-,N/A,,Overcast,190,2012-10-13 18:54:00
2:54 PM,71.1,62.1,73,29.67,10.0,SSW,12.7,-,N/A,,Overcast,200,2012-10-13 19:54:00
3:54 PM,71.1,63.0,75,29.66,10.0,WSW,8.1,-,N/A,,Overcast,240,2012-10-13 20:54:00
4:01 PM,71.6,62.6,73,29.67,10.0,WSW,6.9,-,N/A,,Overcast,240,2012-10-13 21:01:00
4:54 PM,72.0,63.0,73,29.65,10.0,WSW,3.5,-,N/A,,Mostly Cloudy,250,2012-10-13 21:54:00
5:54 PM,70.0,63.0,78,29.62,10.0,Calm,Calm,-,N/A,,Clear,0,2012-10-13 22:54:00
6:54 PM,69.1,63.0,81,29.61,9.0,ESE,4.6,-,N/A,,Clear,110,2012-10-13 23:54:00
7:21 PM,66.2,62.6,88,29.62,9.0,ESE,4.6,-,N/A,Thunderstorm,Thunderstorm,110,2012-10-14 00:21:00
7:54 PM,66.9,64.0,90,29.62,7.0,East,9.2,-,0.01,Rain-Thunderstorm,Light Thunderstorms and Rain,90,2012-10-14 00:54:00
8:33 PM,66.2,62.6,88,29.62,6.0,ESE,24.2,29.9,0.02,Rain-Thunderstorm,Thunderstorms and Rain,120,2012-10-14 01:33:00
8:54 PM,66.2,60.8,83,29.59,9.0,ESE,23.0,28.8,N/A,Rain-Thunderstorm,Thunderstorms and Rain,120,2012-10-14 01:54:00
9:35 PM,64.4,57.2,77,29.57,10.0,East,8.1,-,0.00,,Clear,90,2012-10-14 02:35:00
9:54 PM,66.0,57.0,73,29.59,10.0,NW,10.4,-,0.00,,Clear,310,2012-10-14 02:54:00
10:54 PM,61.0,55.9,83,29.62,10.0,WNW,3.5,-,N/A,,Clear,290,2012-10-14 03:54:00
11:54 PM,57.2,55.4,94,29.62,10.0,Calm,Calm,-,N/A,,Mostly Cloudy,0,2012-10-14 04:54:00